Wind_Speed
5 10 10 7 17 20 21 21 20 20 20 20 21 22 22 22 21 20 19 18 19 19 18 19 19 19 20 19 18 16 15 11 17 22 22 22 21 20 16 15 18 21 20
4 8 9 7 17 20 19 20 19 20 22 21 21 23 23 22 21 20 19 19 18 18 18 18 17 17 18 17 16 16 15 17 19 20 20 20 19 18 15 14 18 17 16
7 6 9 7 17 21 21 22 22 24 23 23 24 23 22 21 21 20 20 19 18 17 18 16 17 18 20 19 18 19 21 23 22 20 18 19 18 15 11 14 16 15 17
4 3 11 6 17 22 21 24 26 26 25 26 25 22 18 21 21 21 21 20 19 17 18 17 17 18 20 19 21 23 23 24 22 17 20 18 18 15 16 16 16 15 14
4 4 10 13 12 23 22 25 28 28 29 28 28 16 21 18 21 22 22 19 18 20 21 18 19 20 21 23 28 32 32 28 23 17 15 17 17 18 17 16 16 16 15
3 7 10 14 17 19 25 26 30 31 33 33 34 22 29 28 23 24 23 19 17 17 20 19 21 22 23 28 32 31 27 25 22 13 12 12 17 15 14 14 14 14 14
7 10 16 14 19 20 22 29 32 36 38 38 37 29 31 28 23 25 24 20 16 18 19 21 23 24 27 30 32 28 24 23 16 12 13 11 14 14 13 14 14 15 15
11 15 18 16 18 22 25 28 34 39 38 41 38 37 40 28 24 25 24 23 21 14 19 22 23 24 26 29 30 27 25 22 13 12 9 14 15 14 15 15 14 14 15
14 16 17 19 20 22 28 30 32 40 26 36 40 41 38 27 31 32 27 23 21 22 22 22 23 25 26 28 27 27 23 23 15 12 10 16 16 15 15 15 15 14 14
16 16 16 19 18 21 28 34 34 34 36 48 42 43 34 31 38 33 29 26 25 27 27 27 26 26 26 25 26 27 22 17 8 9 11 15 14 15 14 13 14 12 12
16 14 15 15 15 16 25 35 41 42 46 57 50 47 40 39 39 34 30 28 30 29 28 27 26 26 24 24 24 25 20 13 19 11 9 14 14 14 14 13 12 11 11
18 20 15 13 14 15 11 12 15 28 41 34 44 45 42 42 37 34 31 31 32 30 28 27 27 26 25 28 25 20 20 15 13 9 14 15 14 13 12 12 11 10 10
15 16 15 14 10 11 10 11 10 9 24 52 53 50 45 43 37 34 32 34 34 31 31 28 28 26 26 28 22 15 16 11 10 7 14 13 12 11 12 12 11 10 9
13 15 16 12 8 12 10 13 15 6 26 39 52 49 48 43 38 34 35 37 36 34 32 30 28 25 25 23 15 15 17 11 11 7 12 12 10 11 11 12 10 9 8
13 14 17 10 10 13 12 16 15 13 18 24 40 38 40 41 41 37 36 38 37 36 34 31 26 21 17 17 13 16 15 13 12 9 13 12 11 11 11 11 10 8 6
9 12 11 9 11 10 16 20 16 16 22 27 29 38 39 39 40 37 39 38 39 36 34 31 25 24 19 16 17 19 16 12 10 8 12 13 12 11 11 11 8 6 5
14 11 11 9 10 12 11 14 16 18 26 34 36 37 35 37 40 38 41 37 37 35 33 30 24 23 21 18 17 17 17 15 12 10 6 7 13 12 11 10 7 7 6
15 13 11 14 11 11 13 13 15 21 22 37 38 36 35 34 42 39 40 37 34 29 29 27 25 24 21 18 18 19 17 18 14 12 10 6 7 13 14 11 7 8 9
16 13 16 13 13 12 12 16 15 19 29 36 38 35 41 39 39 39 39 35 35 32 30 28 28 24 23 20 18 16 16 15 16 17 10 10 11 12 12 12 12 13 12
16 15 13 14 14 14 14 14 18 20 26 34 40 40 45 44 42 44 39 34 35 36 32 29 27 24 22 21 15 17 16 14 15 15 17 14 14 17 16 14 13 16 16
14 15 15 16 16 14 13 11 14 22 31 34 41 44 45 45 45 44 43 37 32 33 33 25 27 26 21 20 18 17 15 14 15 17 18 21 21 20 19 20 21 20 20
13 14 16 17 14 13 9 11 14 17 27 40 41 45 49 49 47 50 47 40 37 28 26 29 28 27 21 21 18 20 13 15 23 22 20 21 23 23 25 24 26 26 25
16 18 19 18 15 10 10 7 11 12 17 32 42 49 55 55 51 52 49 41 39 37 31 33 31 30 25 24 22 15 11 10 10 13 17 22 24 26 26 26 26 30 29
18 20 18 21 16 13 9 7 4 14 20 31 42 44 54 55 52 51 47 39 43 37 34 33 32 27 26 27 28 26 14 9 8 5 12 14 17 24 27 28 29 29 30
20 20 19 18 18 16 13 12 13 22 26 29 33 48 51 50 53 51 47 42 42 33 34 34 27 33 25 23 23 22 23 21 19 16 8 14 16 18 22 25 27 30 33
22 19 22 21 19 18 18 17 20 14 25 28 31 37 41 47 47 50 45 44 36 34 33 31 30 28 31 27 22 19 21 20 21 21 26 30 28 30 30 28 30 30 31
Wind_Direction
11 336 338 200 183 180 182 178 180 178 177 175 172 169 168 166 164 163 164 160 155 150 147 147 151 154 156 158 155 154 156 152 141 130 123 119 119 118 121 122 122 118 115
359 334 336 220 193 188 191 190 186 189 185 183 177 175 169 165 161 161 160 156 154 153 151 148 150 151 151 153 154 157 145 129 125 132 131 129 126 127 129 118 122 121 119
50 311 304 256 214 198 198 195 188 202 194 188 181 179 173 167 164 161 158 157 154 150 148 151 149 148 144 141 135 124 119 115 113 110 125 127 131 134 131 112 113 118 111
37 294 291 278 226 217 210 203 203 202 203 196 187 175 175 171 168 163 157 152 149 147 149 147 142 141 132 128 123 118 108 97 88 105 105 116 119 126 118 115 116 117 118
306 169 226 263 263 235 226 213 211 208 206 203 193 196 191 183 173 163 160 153 148 143 145 143 138 135 131 125 119 110 104 101 95 108 117 115 118 113 116 118 118 116 114
230 237 240 246 255 251 238 227 218 213 212 204 200 214 190 187 178 167 165 155 151 153 149 140 140 135 132 126 119 116 115 112 106 138 136 138 124 126 119 116 115 113 112
226 238 274 274 257 250 247 234 227 220 215 210 200 198 177 175 177 173 166 161 153 155 150 143 141 137 132 128 127 118 111 115 126 137 151 156 130 131 126 122 120 116 114
262 246 275 267 256 251 249 243 234 227 216 211 202 189 182 174 176 183 172 165 159 151 147 144 139 138 140 137 130 125 123 119 124 142 166 142 133 138 130 124 121 121 117
263 259 268 260 249 251 244 241 238 226 222 209 203 194 181 188 164 183 177 172 164 159 156 149 145 143 142 139 137 126 121 123 148 160 157 136 135 132 128 125 126 123 117
270 265 258 267 258 248 243 235 232 235 241 222 207 191 184 183 179 178 178 176 165 161 157 150 146 143 143 140 134 126 123 132 152 147 147 139 134 132 129 127 123 118 113
283 276 285 289 265 253 247 244 241 243 242 229 201 183 190 186 179 176 177 167 162 157 151 149 145 144 142 137 135 130 126 123 150 180 164 142 136 130 131 126 120 119 116
274 283 284 288 282 252 256 277 243 226 212 220 190 182 178 180 177 173 173 165 162 160 155 151 147 145 146 139 137 130 124 151 177 216 163 144 139 140 135 131 131 127 123
267 264 282 284 262 215 158 176 172 195 219 243 191 186 185 179 168 173 168 166 164 162 157 154 153 154 151 143 130 135 143 156 202 214 161 147 148 150 145 142 137 128 122
263 270 271 276 239 204 187 210 180 152 192 158 177 170 176 171 168 172 170 171 168 166 162 161 158 157 154 143 120 152 139 162 193 214 167 159 158 157 154 147 141 135 131
241 253 268 246 226 209 195 185 197 173 180 171 172 171 176 170 173 173 175 177 174 171 171 163 159 151 156 155 144 171 138 184 206 223 182 173 165 165 166 155 155 154 137
239 254 248 223 205 198 199 199 206 198 184 188 197 176 176 176 176 176 178 181 178 177 175 167 155 171 165 171 177 153 151 176 220 230 189 178 177 178 175 179 162 171 163
239 232 228 219 202 196 186 190 208 198 190 180 166 175 181 184 182 179 179 183 180 183 180 168 154 177 174 181 171 163 163 170 202 231 208 216 196 198 193 200 184 198 209
234 222 206 202 190 197 192 194 195 190 191 196 193 192 190 194 188 182 182 180 183 182 174 165 177 181 177 176 178 176 172 172 184 212 232 243 236 225 210 213 221 229 234
228 222 216 222 211 206 206 194 193 194 189 190 192 197 196 190 189 185 179 175 179 179 174 178 181 180 182 178 185 179 178 179 196 188 220 246 264 263 235 243 244 240 239
241 239 224 209 205 202 207 211 209 203 206 203 203 202 188 187 184 182 178 178 185 182 178 184 185 184 190 177 180 186 184 189 205 197 188 218 238 245 262 261 254 250 253
230 234 214 213 211 208 217 212 210 215 209 212 208 196 196 188 187 186 182 183 178 184 181 176 181 185 187 177 185 184 185 191 211 202 214 206 222 237 248 251 262 259 261
230 208 206 206 211 207 206 231 240 233 219 210 204 210 204 195 188 182 185 187 187 174 183 191 187 182 187 187 186 184 183 211 218 219 216 222 225 233 243 242 249 259 260
214 199 203 207 211 207 220 263 272 267 237 214 210 198 204 198 190 187 183 184 186 188 196 200 194 188 183 192 189 188 188 214 225 237 239 244 238 240 245 251 248 250 258
209 195 204 209 213 200 203 231 186 207 183 187 208 191 185 191 189 190 190 192 189 185 207 201 191 190 197 203 198 197 196 206 197 207 242 242 255 250 250 251 255 260 258
207 191 194 204 209 198 198 197 175 164 165 178 165 177 193 191 193 194 192 192 180 197 202 200 202 199 212 218 217 216 226 232 242 247 242 251 245 256 260 262 263 258 259
202 187 194 201 202 194 194 190 191 173 171 182 167 179 189 194 199 185 182 178 191 199 201 205 214 215 211 210 231 238 244 245 260 262 260 258 257 264 263 263 267 274 278
Height
1477 1476 1476 1477 1480 1483 1486 1489 1492 1495 1497 1499 1501 1503 1504 1507 1510 1512 1515 1518 1520 1522 1525 1527 1529 1532 1533 1535 1537 1539 1540 1542 1543 1545 1547 1550 1551 1551 1553 1554 1554 1554 1554
1476 1477 1477 1478 1481 1483 1486 1490 1494 1497 1498 1500 1501 1503 1505 1508 1510 1512 1514 1518 1520 1522 1526 1528 1530 1533 1535 1537 1538 1540 1542 1544 1545 1547 1547 1550 1553 1552 1554 1554 1555 1555 1556
1479 1479 1478 1479 1481 1483 1486 1489 1492 1499 1498 1500 1502 1504 1507 1509 1510 1513 1514 1517 1519 1522 1527 1529 1530 1533 1536 1538 1540 1542 1543 1545 1547 1548 1551 1551 1554 1554 1555 1555 1558 1558 1558
1479 1478 1477 1479 1481 1483 1486 1489 1492 1495 1498 1500 1503 1505 1510 1511 1512 1513 1515 1516 1519 1523 1527 1529 1528 1534 1537 1540 1542 1546 1546 1548 1550 1553 1553 1554 1555 1556 1556 1558 1558 1560 1561
1476 1478 1478 1478 1481 1482 1485 1488 1490 1492 1495 1499 1503 1502 1511 1515 1515 1514 1517 1517 1521 1524 1528 1529 1532 1536 1539 1543 1545 1548 1549 1552 1554 1554 1558 1557 1558 1558 1557 1559 1560 1560 1563
1474 1474 1475 1476 1479 1481 1483 1486 1489 1489 1492 1495 1500 1502 1504 1514 1514 1515 1519 1519 1522 1524 1528 1528 1536 1537 1542 1546 1548 1551 1552 1554 1556 1556 1560 1558 1560 1559 1560 1561 1562 1562 1564
1471 1472 1471 1474 1475 1478 1480 1483 1485 1488 1487 1492 1494 1501 1506 1514 1516 1516 1518 1522 1522 1525 1529 1531 1537 1539 1543 1547 1551 1553 1554 1555 1558 1558 1560 1560 1561 1563 1562 1562 1564 1565 1565
1466 1468 1468 1470 1471 1473 1474 1477 1479 1479 1481 1486 1494 1499 1500 1507 1511 1520 1520 1522 1522 1525 1529 1534 1536 1540 1545 1549 1552 1554 1556 1558 1559 1559 1560 1562 1563 1564 1563 1564 1566 1567 1566
1462 1463 1463 1464 1466 1467 1468 1471 1473 1475 1452 1487 1489 1495 1500 1505 1506 1516 1520 1521 1521 1525 1529 1534 1538 1542 1546 1550 1552 1555 1558 1559 1560 1560 1561 1563 1564 1565 1565 1566 1567 1568 1568
1458 1458 1458 1459 1460 1460 1460 1465 1466 1466 1463 1463 1489 1494 1502 1506 1509 1513 1518 1521 1523 1527 1532 1535 1539 1542 1547 1550 1554 1556 1560 1561 1562 1563 1563 1565 1566 1566 1567 1567 1569 1570 1570
1455 1454 1454 1455 1455 1454 1455 1457 1457 1456 1458 1473 1480 1491 1495 1506 1510 1511 1517 1520 1524 1528 1532 1535 1539 1543 1548 1552 1555 1559 1561 1563 1562 1563 1565 1566 1568 1569 1569 1569 1571 1572 1572
1451 1451 1452 1452 1450 1449 1449 1446 1444 1445 1455 1460 1478 1486 1497 1506 1506 1509 1516 1520 1524 1530 1533 1537 1540 1545 1549 1553 1557 1560 1562 1564 1562 1564 1565 1565 1566 1570 1570 1572 1573 1573 1573
1452 1449 1449 1450 1448 1447 1446 1445 1448 1449 1457 1449 1468 1482 1493 1502 1503 1506 1514 1520 1523 1529 1533 1537 1540 1545 1549 1553 1557 1561 1562 1564 1562 1563 1565 1565 1567 1569 1570 1572 1573 1575 1575
1448 1446 1446 1447 1446 1446 1447 1449 1451 1452 1445 1450 1469 1476 1490 1493 1498 1503 1511 1519 1523 1528 1531 1535 1540 1546 1550 1553 1556 1560 1564 1564 1562 1564 1565 1565 1567 1570 1571 1571 1574 1575 1576
1444 1444 1442 1444 1444 1446 1448 1449 1451 1454 1453 1457 1467 1472 1486 1488 1493 1501 1510 1517 1523 1527 1530 1535 1540 1545 1550 1553 1556 1559 1563 1563 1562 1564 1564 1565 1567 1569 1572 1571 1573 1576 1576
1441 1440 1440 1441 1443 1443 1447 1451 1452 1454 1458 1463 1471 1479 1485 1489 1494 1500 1508 1516 1522 1526 1530 1535 1539 1546 1549 1553 1554 1556 1560 1564 1562 1563 1564 1564 1566 1568 1569 1572 1571 1575 1576
1436 1438 1438 1440 1442 1443 1445 1449 1453 1455 1460 1466 1469 1477 1485 1488 1494 1500 1507 1516 1522 1525 1531 1536 1540 1545 1549 1550 1554 1556 1559 1562 1563 1561 1563 1565 1565 1568 1569 1571 1570 1574 1576
1433 1434 1435 1436 1439 1442 1444 1448 1452 1455 1459 1463 1467 1472 1480 1488 1495 1501 1506 1514 1521 1525 1530 1535 1539 1543 1547 1550 1552 1555 1557 1560 1564 1562 1562 1563 1565 1567 1568 1569 1569 1572 1574
1430 1430 1432 1434 1437 1439 1441 1445 1449 1453 1456 1461 1466 1470 1476 1486 1495 1501 1506 1512 1517 1523 1528 1533 1536 1541 1544 1549 1551 1554 1556 1559 1562 1564 1562 1561 1563 1566 1567 1567 1568 1571 1572
1427 1427 1429 1432 1434 1435 1439 1443 1446 1450 1454 1458 1462 1467 1473 1482 1491 1499 1504 1512 1514 1520 1525 1530 1533 1539 1543 1547 1550 1553 1556 1558 1559 1562 1563 1563 1562 1564 1564 1565 1567 1569 1570
1425 1424 1426 1428 1431 1434 1436 1440 1442 1444 1449 1454 1457 1464 1470 1478 1486 1495 1502 1508 1514 1516 1522 1527 1531 1537 1541 1545 1549 1552 1555 1556 1558 1559 1559 1561 1563 1563 1563 1563 1564 1566 1566
1422 1423 1424 1426 1428 1430 1432 1435 1437 1438 1440 1447 1451 1457 1464 1473 1481 1490 1497 1504 1509 1513 1520 1524 1529 1535 1540 1543 1547 1549 1552 1555 1555 1554 1555 1557 1559 1559 1560 1562 1560 1561 1562
1419 1421 1423 1424 1426 1428 1428 1431 1432 1432 1436 1440 1446 1447 1457 1468 1476 1484 1492 1498 1504 1511 1518 1522 1527 1532 1536 1539 1543 1546 1548 1549 1548 1549 1550 1552 1553 1554 1555 1556 1557 1557 1557
1416 1419 1422 1423 1424 1427 1428 1430 1432 1430 1429 1430 1439 1448 1451 1462 1471 1481 1488 1496 1502 1510 1518 1522 1526 1529 1532 1534 1540 1541 1541 1544 1544 1544 1546 1548 1549 1550 1551 1551 1552 1552 1552
1412 1415 1421 1422 1423 1425 1427 1430 1433 1431 1433 1433 1438 1440 1452 1460 1468 1477 1485 1494 1502 1509 1515 1518 1522 1526 1528 1532 1535 1537 1539 1540 1541 1542 1541 1542 1544 1544 1545 1545 1546 1547 1548
1410 1412 1417 1420 1421 1423 1425 1428 1433 1435 1435 1439 1442 1446 1453 1459 1466 1475 1484 1492 1499 1505 1510 1514 1521 1523 1526 1528 1530 1532 1533 1535 1537 1537 1538 1538 1538 1537 1538 1540 1539 1539 1540